Location: Julian California
(33.0790°N, 116.6010°W)
Time: 01:56:29
(UTC-07:00)

Cosmos 1386 Rocket - Pass Details

Date: 19 May 2017
Orbit: 929 x 1007 km, 83.0° (Epoch: 28 June)

Event Time Altitude Azimuth Distance (km) Brightness Sun altitude
Rises 20:27:36 0° 355° (N) 3,665 8.1 -9.2°
Reaches altitude 10° 20:30:09 10° 357° (N) 2,703 7.3 -9.7°
Maximum altitude 20:36:19 78° 83° (E) 973 4.4 -10.8°
Drops below altitude 10° 20:42:21 10° 170° (S) 2,639 6.4 -11.8°
Enters shadow 20:44:14 - 172° (S) 3,355 6.9 -12.2°
